When you browse on this site, cookies collect data to enhance your experience and personalize the content and advertising you see.
Visit our Privacy Policy to learn more. By continuing to use the site, you agree to this use of cookies and data.
  • In Norway
  • List of Countries
  • For 7 days
  • Water Temperature
  • Satellite Maps
  • Weather Map
  • Weather Widgets
  • user-avatar
    Login

    Hourly Weather Zarka

    Today, 21 June, Friday

    Time Temperature Precipitation Wind Pressure Humidity
    00:00 +21°C° 0 mm 2 mps 702 mmHg 49%
    01:00 +21°C° 0 mm 2 mps 701 mmHg 48%
    02:00 +20°C° 0 mm 2 mps 701 mmHg 48%
    03:00 +20°C° 0 mm 2 mps 701 mmHg 49%
    04:00 +21°C° 0 mm 1 mps 701 mmHg 51%
    05:00 +20°C° 0 mm 1 mps 701 mmHg 52%
    06:00 +21°C° 0 mm 2 mps 702 mmHg 46%
    07:00 +24°C° 0 mm 2 mps 702 mmHg 39%
    08:00 +26°C° 0 mm 3 mps 703 mmHg 33%
    09:00 +28°C° 0 mm 4 mps 703 mmHg 28%
    10:00 +30°C° 0 mm 5 mps 703 mmHg 24%
    11:00 +33°C° 0 mm 6 mps 703 mmHg 20%
    12:00 +34°C° 0 mm 7 mps 703 mmHg 20%
    13:00 +34°C° 0 mm 8 mps 702 mmHg 20%
    14:00 +35°C° 0 mm 8 mps 702 mmHg 20%
    15:00 +33°C° 0 mm 8 mps 702 mmHg 24%
    16:00 +32°C° 0 mm 8 mps 702 mmHg 28%
    17:00 +30°C° 0 mm 7 mps 701 mmHg 32%
    18:00 +28°C° 0 mm 6 mps 701 mmHg 41%
    19:00 +26°C° 0 mm 5 mps 701 mmHg 50%
    20:00 +24°C° 0 mm 3 mps 701 mmHg 59%
    21:00 +22°C° 0 mm 3 mps 701 mmHg 64%
    22:00 +21°C° 0 mm 3 mps 701 mmHg 69%
    23:00 +20°C° 0 mm 2 mps 701 mmHg 74%

    Tomorrow, 22 June, Saturday

    Time Temperature Precipitation Wind Pressure Humidity
    00:00 +20°C° 0 mm 2 mps 701 mmHg 74%
    01:00 +19°C° 0 mm 2 mps 701 mmHg 74%
    02:00 +19°C° 0 mm 2 mps 701 mmHg 75%
    03:00 +19°C° 0 mm 2 mps 701 mmHg 75%
    04:00 +18°C° 0 mm 2 mps 701 mmHg 76%
    05:00 +18°C° 0 mm 2 mps 701 mmHg 77%
    06:00 +20°C° 0 mm 2 mps 701 mmHg 66%
    07:00 +22°C° 0 mm 3 mps 702 mmHg 56%
    08:00 +25°C° 0 mm 3 mps 702 mmHg 45%
    09:00 +27°C° 0 mm 3 mps 703 mmHg 38%
    10:00 +29°C° 0 mm 4 mps 703 mmHg 31%
    11:00 +32°C° 0 mm 4 mps 703 mmHg 24%
    12:00 +32°C° 0 mm 4 mps 703 mmHg 23%
    13:00 +33°C° 0 mm 5 mps 702 mmHg 23%
    14:00 +34°C° 0 mm 5 mps 702 mmHg 22%
    15:00 +34°C° 0 mm 5 mps 702 mmHg 24%
    16:00 +33°C° 0 mm 6 mps 701 mmHg 27%
    17:00 +32°C° 0 mm 6 mps 701 mmHg 30%
    18:00 +29°C° 0 mm 5 mps 701 mmHg 37%
    19:00 +27°C° 0 mm 4 mps 701 mmHg 44%
    20:00 +25°C° 0 mm 3 mps 702 mmHg 51%
    21:00 +24°C° 0 mm 3 mps 702 mmHg 54%
    22:00 +23°C° 0 mm 2 mps 701 mmHg 56%
    23:00 +23°C° 0 mm 2 mps 701 mmHg 59%

    Day after tomorrow, 23 June, Sunday

    Time Temperature Precipitation Wind Pressure Humidity
    00:00 +21°C° 0 mm 2 mps 701 mmHg 58%
    01:00 +21°C° 0 mm 2 mps 701 mmHg 57%
    02:00 +20°C° 0 mm 2 mps 701 mmHg 57%
    03:00 +20°C° 0 mm 2 mps 701 mmHg 59%
    04:00 +20°C° 0 mm 1 mps 701 mmHg 61%
    05:00 +20°C° 0 mm 1 mps 701 mmHg 63%
    06:00 +22°C° 0 mm 1 mps 702 mmHg 54%
    07:00 +24°C° 0 mm 1 mps 702 mmHg 45%
    08:00 +26°C° 0 mm 2 mps 702 mmHg 35%
    09:00 +28°C° 0 mm 2 mps 702 mmHg 30%
    10:00 +31°C° 0 mm 2 mps 703 mmHg 24%
    11:00 +34°C° 0 mm 2 mps 703 mmHg 18%
    12:00 +35°C° 0 mm 3 mps 703 mmHg 17%
    13:00 +36°C° 0 mm 3 mps 702 mmHg 15%
    14:00 +37°C° 0 mm 4 mps 702 mmHg 14%
    15:00 +36°C° 0 mm 5 mps 702 mmHg 19%
    16:00 +35°C° 0 mm 5 mps 702 mmHg 24%
    17:00 +35°C° 0 mm 6 mps 701 mmHg 29%
    18:00 +33°C° 0 mm 5 mps 701 mmHg 35%
    19:00 +29°C° 0 mm 4 mps 701 mmHg 42%
    20:00 +27°C° 0 mm 3 mps 701 mmHg 48%
    21:00 +27°C° 0 mm 2 mps 701 mmHg 47%
    22:00 +26°C° 0 mm 2 mps 701 mmHg 47%
    23:00 +26°C° 0 mm 2 mps 701 mmHg 47%

    24 June, Monday

    Time Temperature Precipitation Wind Pressure Humidity
    00:00 +25°C° 0 mm 2 mps 701 mmHg 44%
    01:00 +25°C° 0 mm 2 mps 701 mmHg 42%
    02:00 +24°C° 0 mm 2 mps 701 mmHg 40%
    03:00 +24°C° 0 mm 1 mps 701 mmHg 38%
    04:00 +23°C° 0 mm 1 mps 701 mmHg 37%
    05:00 +23°C° 0 mm 1 mps 701 mmHg 36%
    06:00 +25°C° 0 mm 1 mps 701 mmHg 30%
    07:00 +28°C° 0 mm 1 mps 702 mmHg 24%
    08:00 +31°C° 0 mm 1 mps 702 mmHg 18%
    09:00 +33°C° 0 mm 1 mps 702 mmHg 16%
    10:00 +34°C° 0 mm 1 mps 703 mmHg 14%
    11:00 +36°C° 0 mm 1 mps 703 mmHg 12%
    12:00 +39°C° 0 mm 2 mps 702 mmHg 11%
    13:00 +40°C° 0 mm 2 mps 702 mmHg 11%
    14:00 +42°C° 0 mm 3 mps 702 mmHg 10%
    15:00 +41°C° 0 mm 4 mps 701 mmHg 14%
    16:00 +40°C° 0 mm 5 mps 701 mmHg 18%
    17:00 +39°C° 0 mm 6 mps 701 mmHg 22%
    18:00 +36°C° 0 mm 5 mps 701 mmHg 25%
    19:00 +34°C° 0 mm 5 mps 701 mmHg 28%
    20:00 +30°C° 0 mm 4 mps 701 mmHg 31%
    21:00 +30°C° 0 mm 3 mps 701 mmHg 33%
    22:00 +29°C° 0 mm 3 mps 701 mmHg 35%
    23:00 +28°C° 0 mm 2 mps 701 mmHg 38%

    25 June, Tuesday

    Time Temperature Precipitation Wind Pressure Humidity
    00:00 +27°C° 0 mm 2 mps 701 mmHg 38%
    01:00 +27°C° 0 mm 2 mps 701 mmHg 38%
    02:00 +26°C° 0 mm 2 mps 701 mmHg 38%
    03:00 +26°C° 0 mm 1 mps 701 mmHg 39%
    04:00 +25°C° 0 mm 1 mps 701 mmHg 40%
    05:00 +25°C° 0 mm 1 mps 701 mmHg 40%
    06:00 +28°C° 0 mm 1 mps 701 mmHg 33%
    07:00 +31°C° 0 mm 2 mps 702 mmHg 26%
    08:00 +35°C° 0 mm 2 mps 702 mmHg 19%
    09:00 +37°C° 0 mm 2 mps 702 mmHg 17%
    10:00 +39°C° 0 mm 2 mps 702 mmHg 15%
    11:00 +41°C° 0 mm 1 mps 703 mmHg 13%
    12:00 +42°C° 0 mm 2 mps 702 mmHg 12%
    13:00 +43°C° 0 mm 3 mps 702 mmHg 12%
    14:00 +44°C° 0 mm 4 mps 702 mmHg 11%
    15:00 +43°C° 0 mm 4 mps 702 mmHg 14%
    16:00 +42°C° 0 mm 4 mps 701 mmHg 17%
    17:00 +41°C° 0 mm 5 mps 701 mmHg 21%
    18:00 +37°C° 0 mm 4 mps 701 mmHg 24%
    19:00 +35°C° 0 mm 3 mps 701 mmHg 28%
    20:00 +33°C° 0 mm 3 mps 701 mmHg 32%
    21:00 +31°C° 0 mm 3 mps 701 mmHg 32%
    22:00 +30°C° 0 mm 2 mps 701 mmHg 32%
    23:00 +29°C° 0 mm 2 mps 701 mmHg 32%

    26 June, Wednesday

    Time Temperature Precipitation Wind Pressure Humidity
    00:00 +29°C° 0 mm 2 mps 701 mmHg 32%
    01:00 +28°C° 0 mm 2 mps 700 mmHg 32%
    02:00 +28°C° 0 mm 2 mps 700 mmHg 32%
    03:00 +27°C° 0 mm 2 mps 700 mmHg 34%
    04:00 +26°C° 0 mm 1 mps 700 mmHg 37%
    05:00 +25°C° 0 mm 1 mps 701 mmHg 39%
    06:00 +28°C° 0 mm 1 mps 701 mmHg 34%
    07:00 +31°C° 0 mm 1 mps 701 mmHg 28%
    08:00 +34°C° 0 mm 2 mps 702 mmHg 22%
    09:00 +36°C° 0 mm 2 mps 702 mmHg 19%
    10:00 +38°C° 0 mm 3 mps 702 mmHg 16%
    11:00 +42°C° 0 mm 3 mps 702 mmHg 13%
    12:00 +42°C° 0 mm 4 mps 702 mmHg 13%
    13:00 +43°C° 0 mm 5 mps 702 mmHg 12%
    14:00 +45°C° 0 mm 6 mps 701 mmHg 11%
    15:00 +44°C° 0 mm 6 mps 701 mmHg 14%
    16:00 +41°C° 0 mm 6 mps 701 mmHg 18%
    17:00 +40°C° 0 mm 6 mps 701 mmHg 21%
    18:00 +37°C° 0 mm 5 mps 701 mmHg 23%
    19:00 +35°C° 0 mm 4 mps 701 mmHg 25%
    20:00 +33°C° 0 mm 3 mps 701 mmHg 28%
    21:00 +31°C° 0 mm 3 mps 701 mmHg 26%
    22:00 +30°C° 0 mm 2 mps 700 mmHg 25%
    23:00 +29°C° 0 mm 2 mps 700 mmHg 23%
    Show more